When you browse on this site, cookies collect data to enhance your experience and personalize the content and advertising you see.
Visit our Privacy Policy to learn more. By continuing to use the site, you agree to this use of cookies and data.
  • In Romania
  • List of Countries
  • For 7 days
  • Water Temperature
  • Satellite Maps
  • Weather Map
  • Weather Widgets
  • user-avatar
    Login

    Hourly Weather Athens

    Today, 26 March, Tuesday

    Time Temperature Precipitation Wind Pressure Humidity
    00:00 +14°C° 0 mm 1 mps 748 mmHg 57%
    01:00 +14°C° 0 mm 1 mps 748 mmHg 59%
    02:00 +14°C° 0 mm 2 mps 748 mmHg 61%
    03:00 +14°C° 0 mm 2 mps 748 mmHg 63%
    04:00 +14°C° 0 mm 1 mps 748 mmHg 64%
    05:00 +14°C° 0 mm 1 mps 747 mmHg 65%
    06:00 +14°C° 0 mm 1 mps 748 mmHg 63%
    07:00 +15°C° 0 mm 2 mps 748 mmHg 61%
    08:00 +16°C° 0 mm 1 mps 748 mmHg 58%
    09:00 +18°C° 0 mm 1 mps 748 mmHg 53%
    10:00 +19°C° 0 mm 1 mps 748 mmHg 48%
    11:00 +20°C° 0 mm 1 mps 748 mmHg 43%
    12:00 +21°C° 0 mm 1 mps 748 mmHg 42%
    13:00 +21°C° 0 mm 1 mps 749 mmHg 41%
    14:00 +22°C° 0 mm 1 mps 749 mmHg 40%
    15:00 +21°C° 0.4 mm 2 mps 749 mmHg 43%
    16:00 +20°C° 0.4 mm 2 mps 749 mmHg 47%
    17:00 +19°C° 0.4 mm 3 mps 749 mmHg 50%
    18:00 +18°C° 0.2 mm 2 mps 749 mmHg 55%
    19:00 +17°C° 0.2 mm 2 mps 750 mmHg 61%
    20:00 +16°C° 0.2 mm 2 mps 750 mmHg 66%
    21:00 +16°C° 0.1 mm 2 mps 751 mmHg 69%
    22:00 +15°C° 0.1 mm 2 mps 751 mmHg 71%
    23:00 +15°C° 0.1 mm 1 mps 751 mmHg 74%

    Tomorrow, 27 March, Wednesday

    Time Temperature Precipitation Wind Pressure Humidity
    00:00 +14°C° 0 mm 2 mps 752 mmHg 75%
    01:00 +14°C° 0 mm 2 mps 752 mmHg 77%
    02:00 +14°C° 0 mm 2 mps 753 mmHg 78%
    03:00 +14°C° 0 mm 2 mps 753 mmHg 79%
    04:00 +13°C° 0 mm 2 mps 753 mmHg 80%
    05:00 +13°C° 0 mm 2 mps 753 mmHg 81%
    06:00 +14°C° 0 mm 2 mps 753 mmHg 79%
    07:00 +13°C° 0 mm 3 mps 754 mmHg 77%
    08:00 +14°C° 0 mm 3 mps 754 mmHg 75%
    09:00 +14°C° 0 mm 3 mps 754 mmHg 71%
    10:00 +16°C° 0 mm 3 mps 755 mmHg 67%
    11:00 +17°C° 0 mm 3 mps 755 mmHg 64%
    12:00 +17°C° 0.3 mm 3 mps 755 mmHg 64%
    13:00 +17°C° 0.3 mm 3 mps 756 mmHg 63%
    14:00 +17°C° 0.3 mm 3 mps 756 mmHg 63%
    15:00 +17°C° 0.2 mm 3 mps 755 mmHg 65%
    16:00 +17°C° 0.2 mm 4 mps 755 mmHg 66%
    17:00 +15°C° 0.2 mm 4 mps 755 mmHg 67%
    18:00 +15°C° 0 mm 4 mps 755 mmHg 69%
    19:00 +14°C° 0 mm 3 mps 755 mmHg 72%
    20:00 +13°C° 0 mm 3 mps 755 mmHg 74%
    21:00 +13°C° 0.3 mm 3 mps 755 mmHg 75%
    22:00 +13°C° 0.3 mm 3 mps 755 mmHg 76%
    23:00 +13°C° 0.3 mm 3 mps 755 mmHg 76%

    Day after tomorrow, 28 March, Thursday

    Time Temperature Precipitation Wind Pressure Humidity
    00:00 +13°C° 0.3 mm 3 mps 755 mmHg 77%
    01:00 +12°C° 0.3 mm 3 mps 755 mmHg 78%
    02:00 +12°C° 0.3 mm 3 mps 755 mmHg 79%
    03:00 +12°C° 0.4 mm 4 mps 755 mmHg 80%
    04:00 +12°C° 0.4 mm 5 mps 754 mmHg 81%
    05:00 +12°C° 0.4 mm 5 mps 754 mmHg 81%
    06:00 +11°C° 0.7 mm 6 mps 754 mmHg 80%
    07:00 +11°C° 0.7 mm 7 mps 755 mmHg 79%
    08:00 +11°C° 0.7 mm 7 mps 755 mmHg 78%
    09:00 +11°C° 0.3 mm 8 mps 755 mmHg 76%
    10:00 +11°C° 0.3 mm 8 mps 755 mmHg 73%
    11:00 +11°C° 0.3 mm 9 mps 756 mmHg 71%
    12:00 +11°C° 0.2 mm 10 mps 755 mmHg 69%
    13:00 +11°C° 0.2 mm 10 mps 755 mmHg 66%
    14:00 +11°C° 0.2 mm 11 mps 755 mmHg 63%
    15:00 +11°C° 0.1 mm 11 mps 755 mmHg 63%
    16:00 +10°C° 0.1 mm 12 mps 755 mmHg 62%
    17:00 +10°C° 0.1 mm 12 mps 755 mmHg 62%
    18:00 +10°C° 0 mm 12 mps 755 mmHg 60%
    19:00 +9°C° 0 mm 12 mps 755 mmHg 59%
    20:00 +9°C° 0 mm 12 mps 755 mmHg 57%
    21:00 +8°C° 0 mm 12 mps 756 mmHg 56%
    22:00 +8°C° 0 mm 13 mps 756 mmHg 55%
    23:00 +8°C° 0 mm 13 mps 756 mmHg 54%

    29 March, Friday

    Time Temperature Precipitation Wind Pressure Humidity
    00:00 +7°C° 0 mm 13 mps 756 mmHg 55%
    01:00 +6°C° 0 mm 14 mps 756 mmHg 55%
    02:00 +6°C° 0 mm 14 mps 756 mmHg 55%
    03:00 +6°C° 0 mm 14 mps 756 mmHg 56%
    04:00 +5°C° 0 mm 15 mps 756 mmHg 56%
    05:00 +5°C° 0 mm 15 mps 756 mmHg 57%
    06:00 +5°C° 0 mm 15 mps 756 mmHg 56%
    07:00 +5°C° 0 mm 15 mps 756 mmHg 56%
    08:00 +5°C° 0 mm 16 mps 757 mmHg 55%
    09:00 +6°C° 0 mm 16 mps 757 mmHg 54%
    10:00 +6°C° 0 mm 15 mps 757 mmHg 52%
    11:00 +8°C° 0 mm 15 mps 757 mmHg 50%
    12:00 +8°C° 0 mm 15 mps 757 mmHg 53%
    13:00 +6°C° 0 mm 14 mps 756 mmHg 56%
    14:00 +6°C° 0 mm 14 mps 756 mmHg 60%
    15:00 +6°C° 0 mm 14 mps 756 mmHg 59%
    16:00 +6°C° 0 mm 15 mps 756 mmHg 59%
    17:00 +7°C° 0 mm 16 mps 755 mmHg 59%
    18:00 +8°C° 0.1 mm 15 mps 755 mmHg 60%
    19:00 +6°C° 0.1 mm 14 mps 756 mmHg 62%
    20:00 +6°C° 0.1 mm 14 mps 756 mmHg 63%
    21:00 +6°C° 0.1 mm 14 mps 756 mmHg 63%
    22:00 +6°C° 0.1 mm 14 mps 756 mmHg 62%
    23:00 +5°C° 0.1 mm 15 mps 756 mmHg 61%

    30 March, Saturday

    Time Temperature Precipitation Wind Pressure Humidity
    00:00 +5°C° 0 mm 14 mps 756 mmHg 61%
    01:00 +5°C° 0 mm 14 mps 756 mmHg 61%
    02:00 +5°C° 0 mm 14 mps 756 mmHg 61%
    03:00 +5°C° 0 mm 14 mps 755 mmHg 61%
    04:00 +4°C° 0 mm 14 mps 755 mmHg 61%
    05:00 +4°C° 0 mm 14 mps 755 mmHg 61%
    06:00 +5°C° 0 mm 14 mps 755 mmHg 60%
    07:00 +5°C° 0 mm 15 mps 755 mmHg 58%
    08:00 +5°C° 0 mm 15 mps 755 mmHg 57%
    09:00 +5°C° 0 mm 15 mps 755 mmHg 56%
    10:00 +6°C° 0 mm 15 mps 755 mmHg 56%
    11:00 +6°C° 0 mm 15 mps 755 mmHg 55%
    12:00 +6°C° 0 mm 15 mps 755 mmHg 55%
    13:00 +6°C° 0 mm 15 mps 754 mmHg 55%
    14:00 +6°C° 0 mm 15 mps 754 mmHg 55%
    15:00 +8°C° 0.1 mm 14 mps 754 mmHg 56%
    16:00 +8°C° 0.1 mm 13 mps 754 mmHg 56%
    17:00 +8°C° 0.1 mm 13 mps 753 mmHg 57%
    18:00 +8°C° 0 mm 12 mps 753 mmHg 58%
    19:00 +8°C° 0 mm 11 mps 754 mmHg 59%
    20:00 +8°C° 0 mm 11 mps 754 mmHg 60%
    21:00 +8°C° 0 mm 11 mps 753 mmHg 60%
    22:00 +7°C° 0 mm 11 mps 753 mmHg 61%
    23:00 +7°C° 0 mm 11 mps 753 mmHg 62%

    31 March, Sunday

    Time Temperature Precipitation Wind Pressure Humidity
    00:00 +7°C° 0 mm 11 mps 753 mmHg 62%
    01:00 +7°C° 0 mm 11 mps 752 mmHg 62%
    02:00 +7°C° 0 mm 11 mps 752 mmHg 63%
    03:00 +7°C° 0 mm 11 mps 752 mmHg 63%
    04:00 +7°C° 0 mm 11 mps 752 mmHg 64%
    05:00 +7°C° 0 mm 11 mps 751 mmHg 64%
    06:00 +8°C° 0 mm 11 mps 751 mmHg 63%
    07:00 +8°C° 0 mm 11 mps 752 mmHg 63%
    08:00 +8°C° 0 mm 12 mps 752 mmHg 62%
    09:00 +9°C° 0.1 mm 11 mps 752 mmHg 60%
    10:00 +11°C° 0.1 mm 11 mps 752 mmHg 57%
    11:00 +11°C° 0.1 mm 11 mps 752 mmHg 55%
    12:00 +12°C° 0 mm 11 mps 752 mmHg 53%
    13:00 +12°C° 0 mm 11 mps 751 mmHg 52%
    14:00 +13°C° 0 mm 11 mps 751 mmHg 50%
    15:00 +13°C° 0 mm 10 mps 751 mmHg 50%
    16:00 +13°C° 0 mm 9 mps 751 mmHg 50%
    17:00 +13°C° 0 mm 9 mps 751 mmHg 51%
    18:00 +12°C° 0 mm 7 mps 751 mmHg 53%
    19:00 +11°C° 0 mm 6 mps 751 mmHg 56%
    20:00 +10°C° 0 mm 5 mps 751 mmHg 58%
    21:00 +11°C° 0 mm 4 mps 751 mmHg 59%
    22:00 +11°C° 0 mm 4 mps 751 mmHg 60%
    23:00 +11°C° 0 mm 4 mps 751 mmHg 60%
    Show more